DW6345 Murcia ES current weather conditions

sailwx.info

Wind from 311 at 5 knots gusting 8

Air temperature 11.1° C
Dewpoint 1.1° C

Last reported at 2017-Jan-22 06:55 UTC.
Time now 2017-Jan-22 08:06 UTC

Location: N 37°60' W 001°06'.
View on Google Maps.

See reports from other nearby stations

  
Tides and Currents Weather Stations Pressure Air Temp Water Temp Dewpoint Dewpoint Depression Visibility Wind Speed Wind Dir Waves Ship Positions
date/time (UTC)wind fromknots sea level pressurealtimeterstation pressurevisibilityair tempwater tempwave heightnotes
2017-Jan-22 07:50 270 8 gusting 13 11.1
2017-Jan-22 07:45 274 6 gusting 11 11.1
2017-Jan-22 07:40 315 6 gusting 10 11.1
2017-Jan-22 07:35 270 5 gusting 8 11.1
2017-Jan-22 07:30 270 7 gusting 12 11.1
2017-Jan-22 07:25 315 3 gusting 10 11.1
2017-Jan-22 07:20 270 5 gusting 10 11.1
2017-Jan-22 07:15 274 4 gusting 6 11.1
2017-Jan-22 07:10 274 2 gusting 6 10.6
2017-Jan-22 07:05 315 5 gusting 6 11.1
2017-Jan-22 07:00 315 4 gusting 8 11.1
2017-Jan-22 06:55 311 5 gusting 8 11.1
2017-Jan-22 06:50 313 4 gusting 8 11.1
2017-Jan-22 06:45 315 2 gusting 7 11.1
2017-Jan-22 06:40 315 4 gusting 10 11.1
2017-Jan-22 06:35 315 3 gusting 8 11.1
2017-Jan-22 06:30 312 4 gusting 13 11.1
2017-Jan-22 06:25 312 4 gusting 8 11.1
2017-Jan-22 06:20 311 5 gusting 13 11.1
2017-Jan-22 06:15 273 5 gusting 11 11.1
2017-Jan-22 06:10 312 2 gusting 6 11.1
2017-Jan-22 06:05 270 2 gusting 6 11.1
2017-Jan-22 06:00 315 3 gusting 6 11.1
2017-Jan-22 05:55 309 4 gusting 7 11.1
2017-Jan-22 05:50 045 2 gusting 11 11.1
2017-Jan-22 05:45 042 4 gusting 11 11.1
2017-Jan-22 05:40 090 1 gusting 4 11.1
2017-Jan-22 05:35 335 1 gusting 6 11.1
2017-Jan-22 05:30 041 4 gusting 6 11.1
2017-Jan-22 05:25 270 2 gusting 10 11.1
2017-Jan-22 05:20 045 6 gusting 10 11.7
2017-Jan-22 05:15 034 5 gusting 13 11.1
2017-Jan-22 05:10 270 7 gusting 11 11.7
2017-Jan-22 05:05 270 6 gusting 8 11.1
2017-Jan-22 05:00 270 5 gusting 11 11.1
2017-Jan-22 04:55 270 5 gusting 11 11.1
2017-Jan-22 04:50 270 6 gusting 11 11.1
2017-Jan-22 04:45 315 4 gusting 13 11.1
2017-Jan-22 04:40 045 7 gusting 13 11.1
2017-Jan-22 04:35 045 4 gusting 10 11.1
2017-Jan-22 04:30 041 5 gusting 10 11.1
2017-Jan-22 04:25 270 4 gusting 11 11.1
2017-Jan-22 04:20 270 6 gusting 12 11.1
2017-Jan-22 04:15 274 6 gusting 11 11.1
2017-Jan-22 04:10 270 6 gusting 13 11.1
2017-Jan-22 04:05 045 3 gusting 11 11.1
2017-Jan-22 04:00 344 4 gusting 6 11.1
2017-Jan-22 03:55 272 2 gusting 6 11.1
2017-Jan-22 03:50 084 2 gusting 6 11.1
2017-Jan-22 03:45 204 1 gusting 6 11.1
2017-Jan-22 03:40 039 2 gusting 12 11.7
2017-Jan-22 03:35 276 6 gusting 13 11.7
2017-Jan-22 03:30 032 6 gusting 12 11.1
2017-Jan-22 03:25 045 6 gusting 12 11.7
2017-Jan-22 03:20 087 5 gusting 11 11.7
2017-Jan-22 03:15 042 5 gusting 13 11.7
2017-Jan-22 03:10 324 6 gusting 11 11.7
2017-Jan-22 03:05 270 6 gusting 11 11.7
2017-Jan-22 03:00 267 5 gusting 11 11.1
2017-Jan-22 02:55 268 5 gusting 11 11.7
2017-Jan-22 02:50 039 5 gusting 13 11.1
2017-Jan-22 02:45 086 7 gusting 14 11.1
2017-Jan-22 02:40 045 5 gusting 8 11.7
2017-Jan-22 02:35 033 5 gusting 19 11.1
2017-Jan-22 02:30 270 5 gusting 13 11.1
2017-Jan-22 02:25 041 4 gusting 14 11.1
2017-Jan-22 02:20 315 0 gusting 5 11.1
2017-Jan-22 02:15 270 2 gusting 6 11.1
2017-Jan-22 02:10 275 2 gusting 7 11.1
2017-Jan-22 02:05 315 4 gusting 7 11.1
2017-Jan-22 02:00 310 4 gusting 12 11.7
2017-Jan-22 01:55 311 2 gusting 8 11.7
2017-Jan-22 01:50 273 4 gusting 8 11.7
2017-Jan-22 01:45 274 5 gusting 6 11.7
2017-Jan-22 01:40 270 5 gusting 12 11.7
2017-Jan-22 01:35 315 4 gusting 12 11.7
2017-Jan-22 01:30 273 6 gusting 12 11.7
2017-Jan-22 01:25 270 1 gusting 6 11.7
2017-Jan-22 01:20 311 4 gusting 12 11.7
2017-Jan-22 01:15 132 6 gusting 12 11.7
2017-Jan-22 01:10 315 6 gusting 13 11.7
2017-Jan-22 01:05 270 8 gusting 13 11.1
2017-Jan-22 01:00 274 6 gusting 11 11.1
2017-Jan-22 00:55 270 5 gusting 7 11.1
2017-Jan-22 00:50 270 5 gusting 12 11.1
2017-Jan-22 00:45 090 5 gusting 14 11.1
2017-Jan-22 00:40 045 6 gusting 17 11.1
2017-Jan-22 00:35 036 9 gusting 19 11.1
2017-Jan-22 00:30 270 12 gusting 19 11.1
2017-Jan-22 00:25 036 10 gusting 18 11.7
2017-Jan-22 00:20 270 11 gusting 19 11.1
2017-Jan-22 00:15 088 7 gusting 14 11.1
2017-Jan-22 00:10 090 8 gusting 17 11.1
2017-Jan-22 00:05 045 6 gusting 11 11.1
2017-Jan-21 23:59 045 5 gusting 13 11.1
2017-Jan-21 23:54 274 4 gusting 11 11.1
2017-Jan-21 23:49 336 3 gusting 11 10.6
2017-Jan-21 23:44 267 0 gusting 5 10.6
2017-Jan-21 23:39 273 0 gusting 2 10.6
2017-Jan-21 23:34 045 1 gusting 8 11.1
2017-Jan-21 23:29 270 5 gusting 10 11.1
2017-Jan-21 23:24 063 4 gusting 13 11.1
2017-Jan-21 23:19 045 6 gusting 14 11.1
2017-Jan-21 23:14 090 7 gusting 13 11.1
2017-Jan-21 23:09 270 6 gusting 13 11.1
2017-Jan-21 23:04 045 7 gusting 13 11.1
2017-Jan-21 22:59 045 11 gusting 19 11.1
2017-Jan-21 22:54 045 6 gusting 17 11.1
2017-Jan-21 22:49 040 11 gusting 17 11.1
2017-Jan-21 22:44 270 5 gusting 13 11.1
2017-Jan-21 22:39 135 4 gusting 14 11.1
2017-Jan-21 22:34 303 11 gusting 24 11.1
2017-Jan-21 22:29 085 4 gusting 13 11.1
2017-Jan-21 22:24 041 8 gusting 13 10.6
2017-Jan-21 22:19 041 0 gusting 6 10.6
2017-Jan-21 22:14 270 4 gusting 10 11.1
2017-Jan-21 22:09 045 5 gusting 13 11.1
2017-Jan-21 22:04 315 6 gusting 13 11.1
2017-Jan-21 22:00 320 5 gusting 17 11.1
2017-Jan-21 21:55 270 8 gusting 15 10.6
2017-Jan-21 21:49 278 7 gusting 17 11.1
2017-Jan-21 21:44 049 8 gusting 21 11.1
2017-Jan-21 21:40 270 10 gusting 17 11.1
2017-Jan-21 21:34 315 9 gusting 17 11.1
2017-Jan-21 21:29 048 8 gusting 17 11.1
2017-Jan-21 21:24 313 8 gusting 19 10.6
2017-Jan-21 21:20 038 6 gusting 13 10.6
2017-Jan-21 21:14 045 5 gusting 11 10.6
2017-Jan-21 21:09 270 4 gusting 7 10.6
2017-Jan-21 21:04 045 0 gusting 2 10.6
2017-Jan-21 21:00 024 3 gusting 8 10.6
2017-Jan-21 20:54 042 2 gusting 7 10.6
2017-Jan-21 20:50 310 4 gusting 10 10.6
2017-Jan-21 20:44 065 6 gusting 8 10.6
2017-Jan-21 20:40 045 4 gusting 8 10.6
2017-Jan-21 20:34 043 1 gusting 8 10.6
2017-Jan-21 20:30 276 3 gusting 7 10.6
2017-Jan-21 20:25 038 4 gusting 8 10.6
2017-Jan-21 20:19 045 4 gusting 8 10.6
2017-Jan-21 20:15 039 5 gusting 10 11.1
2017-Jan-21 20:09 270 3 gusting 6 11.1
2017-Jan-21 20:04 270 4 gusting 7 11.1
2017-Jan-21 20:00 045 4 gusting 17 11.1
2017-Jan-21 19:55 045 6 gusting 12 11.1
2017-Jan-21 19:49 338 6 gusting 12 11.1
2017-Jan-21 19:45 045 4 gusting 12 11.1
2017-Jan-21 19:39 041 6 gusting 13 11.1
2017-Jan-21 19:35 270 6 gusting 14 11.1
2017-Jan-21 19:30 270 5 gusting 11 11.1
2017-Jan-21 19:25 290 6 gusting 14 11.1
2017-Jan-21 19:19 045 6 gusting 15 11.1
2017-Jan-21 19:15 270 10 gusting 17 11.1
2017-Jan-21 19:09 037 9 gusting 18 11.1
2017-Jan-21 19:04 045 10 gusting 15 11.7
2017-Jan-21 19:00 270 6 gusting 17 11.7
2017-Jan-21 18:54 275 6 gusting 15 11.1
2017-Jan-21 18:50 037 5 gusting 13 11.7
2017-Jan-21 18:45 270 6 gusting 12 11.7
2017-Jan-21 18:39 315 4 gusting 14 11.7
2017-Jan-21 18:34 273 4 gusting 13 11.7
2017-Jan-21 18:29 311 6 gusting 14 11.7
2017-Jan-21 18:25 045 7 gusting 17 11.7
2017-Jan-21 18:20 319 7 gusting 21 11.7
2017-Jan-21 18:15 047 7 gusting 21 11.7
2017-Jan-21 18:10 045 8 gusting 19 11.7
2017-Jan-21 18:05 292 13 gusting 19 11.7
2017-Jan-21 18:00 298 11 gusting 27 11.7
2017-Jan-21 17:55 088 8 gusting 19 11.7
2017-Jan-21 17:50 270 5 gusting 17 11.7
2017-Jan-21 17:45 312 8 gusting 17 11.7
2017-Jan-21 17:40 315 8 gusting 19 11.7
2017-Jan-21 17:34 275 7 gusting 17 11.7
2017-Jan-21 17:30 045 7 gusting 17 11.7
2017-Jan-21 17:25 041 4 gusting 11 11.7
2017-Jan-21 17:19 278 6 gusting 14 11.7
2017-Jan-21 17:15 045 6 gusting 18 11.7
2017-Jan-21 17:10 045 4 gusting 17 11.7
2017-Jan-21 17:04 270 6 gusting 13 11.7
2017-Jan-21 17:00 270 6 gusting 12 11.7
2017-Jan-21 16:55 274 2 gusting 6 11.7
2017-Jan-21 16:50 298 5 gusting 14 11.7
2017-Jan-21 16:44 045 5 gusting 11 11.7
2017-Jan-21 16:40 325 6 gusting 13 11.7
2017-Jan-21 16:35 135 6 gusting 14 11.7
2017-Jan-21 16:30 274 5 gusting 17 11.7
2017-Jan-21 16:25 068 10 gusting 17 11.7
2017-Jan-21 16:20 045 7 gusting 14 11.7
2017-Jan-21 16:15 045 5 gusting 13 11.7
2017-Jan-21 16:10 042 6 gusting 13 11.7
2017-Jan-21 16:04 315 5 gusting 12 11.7
2017-Jan-21 16:00 315 6 gusting 12 11.7
2017-Jan-21 15:55 045 4 gusting 8 11.7
2017-Jan-21 15:50 003 2 gusting 11 11.7
2017-Jan-21 15:45 270 6 gusting 12 11.7
2017-Jan-21 15:40 270 3 gusting 7 11.7
2017-Jan-21 15:35 330 3 gusting 8 11.7
2017-Jan-21 15:30 310 4 gusting 11 11.7
2017-Jan-21 15:25 270 6 gusting 13 11.7
2017-Jan-21 15:20 273 5 gusting 8 11.7
2017-Jan-21 15:15 270 7 gusting 14 11.7
2017-Jan-21 15:10 038 6 gusting 12 11.7
2017-Jan-21 15:05 135 6 gusting 13 11.7
2017-Jan-21 15:00 270 6 gusting 18 11.7
2017-Jan-21 14:55 310 8 gusting 19 11.7
2017-Jan-21 14:50 315 6 gusting 17 11.7
2017-Jan-21 14:45 315 6 gusting 17 11.7
2017-Jan-21 14:40 315 8 gusting 19 11.7
2017-Jan-21 14:35 045 9 gusting 15 11.7
2017-Jan-21 14:30 310 9 gusting 19 11.7
2017-Jan-21 14:25 045 9 gusting 18 11.7
2017-Jan-21 14:20 315 6 gusting 21 11.7
2017-Jan-21 14:15 045 9 gusting 19 11.7
2017-Jan-21 14:10 298 6 gusting 19 11.7
2017-Jan-21 14:05 270 10 gusting 18 11.7
2017-Jan-21 14:00 294 7 gusting 15 11.1
2017-Jan-21 13:55 315 6 gusting 14 11.1
2017-Jan-21 13:50 315 6 gusting 15 11.1
2017-Jan-21 13:45 315 8 gusting 15 11.1
2017-Jan-21 13:40 038 9 gusting 19 11.1
2017-Jan-21 13:35 275 7 gusting 18 11.1
2017-Jan-21 13:30 270 5 gusting 13 10.6
2017-Jan-21 13:25 315 6 gusting 11 10.6
2017-Jan-21 13:20 270 6 gusting 13 10.6
2017-Jan-21 13:15 315 6 gusting 11 10.6
2017-Jan-21 13:10 270 5 gusting 13 10.6
2017-Jan-21 13:05 270 7 gusting 13 10.6
2017-Jan-21 13:00 270 9 gusting 15 10.6
2017-Jan-21 12:55 270 8 gusting 13 10.6
2017-Jan-21 12:50 270 6 gusting 19 10.6
2017-Jan-21 12:45 275 10 gusting 14 10.6
2017-Jan-21 12:40 315 6 gusting 14 10.6
2017-Jan-21 12:35 310 7 gusting 14 11.1
2017-Jan-21 12:30 270 10 gusting 17 10.6
2017-Jan-21 12:25 274 8 gusting 17 10.6
2017-Jan-21 12:20 270 9 gusting 18 11.1
2017-Jan-21 12:15 270 7 gusting 13 11.1
2017-Jan-21 12:10 270 8 gusting 17 11.1
2017-Jan-21 12:05 315 6 gusting 13 11.1
2017-Jan-21 12:00 273 6 gusting 13 11.1
2017-Jan-21 11:55 270 6 gusting 14 11.1
2017-Jan-21 11:50 270 9 gusting 14 11.1
2017-Jan-21 11:45 270 6 gusting 15 11.1
2017-Jan-21 11:40 270 9 gusting 13 11.1
2017-Jan-21 11:35 270 7 gusting 13 11.1
2017-Jan-21 11:30 270 6 gusting 13 10.6
2017-Jan-21 11:25 310 10 gusting 17 10.6
2017-Jan-21 11:20 315 10 gusting 18 10.6
2017-Jan-21 11:15 315 10 gusting 15 10.6
2017-Jan-21 11:10 270 9 gusting 17 10.6
2017-Jan-21 11:05 315 9 gusting 17 10.6
2017-Jan-21 11:00 273 6 gusting 13 10.6
2017-Jan-21 10:55 315 7 gusting 13 10.6
2017-Jan-21 10:50 270 6 gusting 14 10.6
2017-Jan-21 10:45 315 8 gusting 14 10.6
2017-Jan-21 10:40 309 5 gusting 14 10.6
2017-Jan-21 10:35 270 7 gusting 13 10.0
2017-Jan-21 10:30 315 7 gusting 17 10.0
2017-Jan-21 10:25 315 11 gusting 17 10.0
2017-Jan-21 10:20 309 5 gusting 15 10.0
2017-Jan-21 10:15 274 5 gusting 11 10.0
2017-Jan-21 10:10 315 9 gusting 18 10.0
2017-Jan-21 10:05 315 10 gusting 18 10.0
2017-Jan-21 10:00 315 8 gusting 14 10.0
2017-Jan-21 09:55 315 10 gusting 17 10.0
2017-Jan-21 09:50 270 5 gusting 13 10.0
2017-Jan-21 09:45 270 6 gusting 15 10.0
2017-Jan-21 09:40 315 6 gusting 11 9.4
2017-Jan-21 09:35 270 4 gusting 8 9.4
2017-Jan-21 09:30 315 5 gusting 10 9.4
2017-Jan-21 09:25 270 2 gusting 7 9.4
2017-Jan-21 09:20 278 3 gusting 11 9.4
2017-Jan-21 09:15 319 2 gusting 11 9.4
2017-Jan-21 09:10 315 5 gusting 13 9.4
2017-Jan-21 09:05 315 5 gusting 10 9.4
2017-Jan-21 09:00 270 4 gusting 13 8.9
2017-Jan-21 08:55 315 6 gusting 13 8.9
2017-Jan-21 08:50 315 5 gusting 11 8.9
2017-Jan-21 08:45 315 5 gusting 11 8.9
2017-Jan-21 08:40 270 3 gusting 8 8.3
2017-Jan-21 08:35 270 5 gusting 8 8.3
2017-Jan-21 08:30 315 2 gusting 6 8.3
2017-Jan-21 08:25 273 4 gusting 6 8.3
2017-Jan-21 08:20 289 4 gusting 11 8.3
2017-Jan-21 08:15 272 5 gusting 11 8.3
2017-Jan-21 08:10 225 5 gusting 7 8.3
2017-Jan-21 08:05 270 2 gusting 6 8.3
2017-Jan-21 08:00 292 4 gusting 7 8.3
2017-Jan-21 07:55 274 2 gusting 6 8.3
2017-Jan-21 07:50 270 3 gusting 11 8.3
2017-Jan-21 07:45 312 5 gusting 11 8.3
2017-Jan-21 07:40 274 5 gusting 8 8.3
2017-Jan-21 07:35 315 4 gusting 6 8.3
2017-Jan-21 07:30 312 2 gusting 6 8.3
2017-Jan-21 07:25 315 2 gusting 6 8.3
2017-Jan-21 07:20 313 2 gusting 6 8.3
2017-Jan-21 07:15 311 2 gusting 6 8.3
2017-Jan-21 07:10 273 1 gusting 6 8.3
2017-Jan-21 07:05 270 2 gusting 6 8.3
2017-Jan-21 07:00 311 4 gusting 6 8.3
2017-Jan-21 06:55 270 1 gusting 6 8.3
2017-Jan-21 06:50 270 1 gusting 6 8.3
2017-Jan-21 06:45 315 1 gusting 5 8.3
2017-Jan-21 06:40 270 2 gusting 5 8.3
2017-Jan-21 06:35 270 2 gusting 6 8.3
2017-Jan-21 06:30 225 4 gusting 6 8.3
2017-Jan-21 06:25 268 5 gusting 6 8.3
2017-Jan-21 06:20 270 3 gusting 5 8.3
2017-Jan-21 06:15 270 2 gusting 6 8.3
2017-Jan-21 06:10 270 2 gusting 5 8.3
2017-Jan-21 06:05 270 2 gusting 2 8.3
2017-Jan-21 06:00 270 2 gusting 5 8.3
2017-Jan-21 05:55 273 2 gusting 6 8.3
2017-Jan-21 05:50 309 4 gusting 8 8.3
2017-Jan-21 05:45 270 4 gusting 10 8.3
2017-Jan-21 05:40 270 4 gusting 6 8.3
2017-Jan-21 05:35 230 2 gusting 6 8.3
2017-Jan-21 05:30 270 2 gusting 8 8.3
2017-Jan-21 05:25 274 4 gusting 8 8.3
2017-Jan-21 05:20 276 5 gusting 7 8.3
2017-Jan-21 05:15 311 4 gusting 8 8.3
2017-Jan-21 05:10 270 4 gusting 11 8.3
2017-Jan-21 05:05 270 4 gusting 6 8.3
2017-Jan-21 05:00 270 3 gusting 6 8.3
2017-Jan-21 04:55 270 2 gusting 6 8.3
2017-Jan-21 04:50 309 2 gusting 6 8.3
2017-Jan-21 04:45 270 2 gusting 6 8.3
2017-Jan-21 04:40 315 2 gusting 6 8.3
2017-Jan-21 04:35 313 1 gusting 5 8.3
2017-Jan-21 04:30 307 1 gusting 6 8.3
2017-Jan-21 04:25 312 2 gusting 6 8.3
2017-Jan-21 04:20 276 3 gusting 6 8.3
2017-Jan-21 04:15 270 3 gusting 6 8.3
2017-Jan-21 04:10 315 2 gusting 6 7.8
2017-Jan-21 04:05 270 0 gusting 4 7.8
2017-Jan-21 04:00 273 1 gusting 6 7.8
2017-Jan-21 03:55 180 1 gusting 4 7.8
2017-Jan-21 03:50 225 7.8
2017-Jan-21 03:45 221 0 gusting 2 7.8
2017-Jan-21 03:40 264 0 gusting 2 7.8
2017-Jan-21 03:35 264 1 gusting 5 8.3
2017-Jan-21 03:30 244 3 gusting 5 8.3
2017-Jan-21 03:25 315 3 gusting 8 8.3
2017-Jan-21 03:20 270 1 gusting 5 8.3
2017-Jan-21 03:15 305 3 gusting 6 8.3
2017-Jan-21 03:10 311 2 gusting 6 8.3
2017-Jan-21 03:05 270 5 gusting 6 8.3
2017-Jan-21 03:00 306 2 gusting 6 8.3
2017-Jan-21 02:55 311 2 gusting 6 8.3
2017-Jan-21 02:50 271 1 gusting 7 8.3
2017-Jan-21 02:45 236 4 gusting 13 8.3
2017-Jan-21 02:40 315 5 gusting 8 8.3
2017-Jan-21 02:35 275 4 gusting 8 8.3
2017-Jan-21 02:30 273 2 gusting 10 8.3
2017-Jan-21 02:25 315 5 gusting 11 8.3
2017-Jan-21 02:20 315 5 gusting 11 8.3
2017-Jan-21 02:15 315 7 gusting 11 8.3
2017-Jan-21 02:10 315 5 gusting 10 8.3
2017-Jan-21 02:05 270 4 gusting 6 7.8
2017-Jan-21 02:00 315 4 gusting 8 7.8
2017-Jan-21 01:55 311 2 gusting 6 7.8
2017-Jan-21 01:50 309 2 gusting 8 8.3
2017-Jan-21 01:45 270 5 gusting 8 7.8
2017-Jan-21 01:40 315 4 gusting 12 7.8
2017-Jan-21 01:35 315 5 gusting 7 7.8
2017-Jan-21 01:30 315 2 gusting 6 7.8
2017-Jan-21 01:25 315 2 gusting 6 7.8
2017-Jan-21 01:20 315 3 gusting 6 7.8
2017-Jan-21 01:15 315 2 gusting 6 7.8
2017-Jan-21 01:10 315 4 gusting 8 7.8
2017-Jan-21 01:05 315 1 gusting 5 7.8
2017-Jan-21 01:00 315 3 gusting 6 7.8
2017-Jan-21 00:55 270 2 gusting 5 7.8
2017-Jan-21 00:50 270 2 gusting 6 7.8
2017-Jan-21 00:45 270 2 gusting 6 7.8
2017-Jan-21 00:40 270 2 gusting 8 7.8
2017-Jan-21 00:35 315 2 gusting 6 7.8
2017-Jan-21 00:30 275 2 gusting 5 7.2
2017-Jan-21 00:25 270 2 gusting 5 7.2
2017-Jan-21 00:20 270 2 gusting 6 7.2
2017-Jan-21 00:15 270 2 gusting 6 7.2
2017-Jan-21 00:10 315 1 gusting 5 7.2
2017-Jan-21 00:05 180 1 gusting 4 7.8
2017-Jan-21 00:00 180 2 gusting 4 7.8
2017-Jan-20 23:55 270 3 gusting 6 7.8
2017-Jan-20 23:50 312 3 gusting 6 7.8
2017-Jan-20 23:45 272 3 gusting 6 7.8
2017-Jan-20 23:40 278 1 gusting 7 7.8
2017-Jan-20 23:35 315 4 gusting 7 7.2
2017-Jan-20 23:30 231 0 gusting 6 7.2
2017-Jan-20 23:25 266 3 gusting 6 7.2
2017-Jan-20 23:20 250 2 gusting 5 7.2
2017-Jan-20 23:15 270 2 gusting 5 7.2
2017-Jan-20 23:10 180 2 gusting 7 7.8
2017-Jan-20 23:05 180 6 gusting 7 7.8
2017-Jan-20 23:00 185 2 gusting 6 7.8
2017-Jan-20 22:55 225 2 gusting 6 7.8
2017-Jan-20 22:50 270 3 gusting 5 7.8
2017-Jan-20 22:45 270 2 gusting 6 7.8
2017-Jan-20 22:40 207 2 gusting 6 7.8
2017-Jan-20 22:35 267 2 gusting 6 8.3
2017-Jan-20 22:30 270 4 gusting 6 8.3
2017-Jan-20 22:25 311 2 gusting 6 8.3
2017-Jan-20 22:20 270 4 gusting 6 8.3
2017-Jan-20 22:15 270 2 gusting 6 8.3
2017-Jan-20 22:10 270 4 gusting 5 8.3
2017-Jan-20 22:05 270 2 gusting 5 8.3
2017-Jan-20 22:00 270 1 gusting 4 8.3
2017-Jan-20 21:55 232 2 gusting 5 8.9
2017-Jan-20 21:50 270 2 gusting 5 8.9
2017-Jan-20 21:45 270 1 gusting 4 8.9
2017-Jan-20 21:40 270 2 gusting 5 8.9
2017-Jan-20 21:35 270 1 gusting 6 8.9
2017-Jan-20 21:30 270 2 gusting 6 8.9
2017-Jan-20 21:25 270 2 gusting 5 8.9
2017-Jan-20 21:20 270 2 gusting 5 8.9
2017-Jan-20 21:15 264 2 gusting 4 8.9
2017-Jan-20 21:10 270 2 gusting 5 8.9
2017-Jan-20 21:05 180 1 gusting 4 8.9
2017-Jan-20 21:00 180 2 gusting 4 8.9
2017-Jan-20 20:55 180 1 gusting 2 8.9
2017-Jan-20 20:50 180 0 gusting 0 9.4
2017-Jan-20 20:45 180 9.4
2017-Jan-20 20:40 315 9.4
2017-Jan-20 20:35 315 0 gusting 2 9.4
2017-Jan-20 20:30 315 2 gusting 2 9.4
2017-Jan-20 20:25 312 1 gusting 5 9.4
2017-Jan-20 20:20 328 2 gusting 6 9.4
2017-Jan-20 20:15 270 3 gusting 6 9.4
2017-Jan-20 20:10 135 2 gusting 6 9.4
2017-Jan-20 20:05 315 2 gusting 5 9.4
2017-Jan-20 20:00 270 2 gusting 5 9.4
2017-Jan-20 19:55 045 1 gusting 5 10.0
2017-Jan-20 19:50 045 1 gusting 4 10.0
2017-Jan-20 19:45 036 1 gusting 2 10.0
2017-Jan-20 19:40 315 0 gusting 2 10.0
2017-Jan-20 19:35 315 0 gusting 2 10.0
2017-Jan-20 19:30 315 0 gusting 2 10.0
2017-Jan-20 19:25 227 0 gusting 2 10.0
2017-Jan-20 19:20 180 0 gusting 2 10.0
2017-Jan-20 19:15 180 0 gusting 4 10.0
2017-Jan-20 19:10 222 2 gusting 5 10.0
2017-Jan-20 19:05 180 2 gusting 5 10.6
2017-Jan-20 19:00 184 2 gusting 5 10.6
2017-Jan-20 18:55 180 2 gusting 6 10.6
2017-Jan-20 18:50 180 4 gusting 6 10.6
2017-Jan-20 18:45 177 2 gusting 5 10.6
2017-Jan-20 18:40 265 1 gusting 2 10.6
2017-Jan-20 18:35 135 0 gusting 2 10.6
2017-Jan-20 18:30 126 0 gusting 2 10.6
2017-Jan-20 18:25 048 1 gusting 2 10.6
2017-Jan-20 18:20 180 0 gusting 1 10.6
2017-Jan-20 18:15 086 0 gusting 2 10.6
2017-Jan-20 18:10 139 11.1
2017-Jan-20 18:05 270 1 gusting 5 11.1
2017-Jan-20 18:00 310 2 gusting 6 11.1
2017-Jan-20 17:55 270 3 gusting 5 11.1
2017-Jan-20 17:50 290 2 gusting 5 11.1
2017-Jan-20 17:45 270 2 gusting 6 11.1
2017-Jan-20 17:40 267 1 gusting 5 11.7
2017-Jan-20 17:35 270 2 gusting 6 11.7
2017-Jan-20 17:30 270 1 gusting 5 11.7
2017-Jan-20 17:25 270 2 gusting 6 11.7
2017-Jan-20 17:20 270 2 gusting 6 11.7
2017-Jan-20 17:15 270 2 gusting 5 11.7
2017-Jan-20 17:10 270 2 gusting 6 12.2
2017-Jan-20 17:05 270 2 gusting 5 12.2
2017-Jan-20 17:00 270 2 gusting 5 12.2
2017-Jan-20 16:55 270 1 gusting 5 12.2
2017-Jan-20 16:50 270 2 gusting 6 12.2
2017-Jan-20 16:45 270 3 gusting 6 12.2
2017-Jan-20 16:40 276 3 gusting 6 12.2
2017-Jan-20 16:35 229 5 gusting 6 12.2
2017-Jan-20 16:30 270 2 gusting 6 12.8
2017-Jan-20 16:25 288 2 gusting 5 12.8
2017-Jan-20 16:20 270 2 gusting 6 12.8
2017-Jan-20 16:15 270 5 gusting 7 12.2
2017-Jan-20 16:10 267 4 gusting 8 12.2
2017-Jan-20 16:05 225 4 gusting 6 12.2
2017-Jan-20 16:00 225 4 gusting 6 12.2
2017-Jan-20 15:55 268 3 gusting 6 12.8
2017-Jan-20 15:50 273 4 gusting 6 12.8
2017-Jan-20 15:45 270 0 gusting 7 12.8
2017-Jan-20 15:40 270 3 gusting 7 12.8
2017-Jan-20 15:35 266 3 gusting 6 12.8
2017-Jan-20 15:30 270 4 gusting 6 12.8
2017-Jan-20 15:25 270 2 gusting 6 12.8
2017-Jan-20 15:20 264 1 gusting 5 12.8
2017-Jan-20 15:15 270 3 gusting 6 12.8
2017-Jan-20 15:10 276 3 gusting 6 12.8
2017-Jan-20 15:05 270 1 gusting 5 12.8
2017-Jan-20 15:00 229 2 gusting 6 12.8
2017-Jan-20 14:55 270 4 gusting 6 12.2
2017-Jan-20 14:50 225 4 gusting 7 12.2
2017-Jan-20 14:45 135 4 gusting 6 12.2
2017-Jan-20 14:40 311 4 gusting 6 12.2
2017-Jan-20 14:35 231 3 gusting 7 11.7
2017-Jan-20 14:30 225 5 gusting 8 11.7
2017-Jan-20 14:25 270 4 gusting 7 11.7
2017-Jan-20 14:20 261 4 gusting 7 11.7
2017-Jan-20 14:15 270 6 gusting 8 11.7
2017-Jan-20 14:10 270 5 gusting 8 11.7
2017-Jan-20 14:05 251 5 gusting 8 11.1
2017-Jan-20 14:00 309 4 gusting 7 11.1
2017-Jan-20 13:55 273 6 gusting 7 11.1
2017-Jan-20 13:50 180 4 gusting 6 11.1
2017-Jan-20 13:45 180 5 gusting 7 11.1
2017-Jan-20 13:40 10.6
2017-Jan-20 13:35 184 4 gusting 6 10.6
2017-Jan-20 13:30 270 4 gusting 6 10.6
2017-Jan-20 13:25 180 4 gusting 6 10.6
2017-Jan-20 13:20 182 4 gusting 6 10.6
2017-Jan-20 13:15 270 5 gusting 8 10.6
2017-Jan-20 13:10 180 5 gusting 6 10.6
2017-Jan-20 13:05 202 5 gusting 6 10.6
2017-Jan-20 13:00 202 5 gusting 7 10.6
2017-Jan-20 12:55 251 4 gusting 7 10.0
2017-Jan-20 12:50 270 4 gusting 7 10.0
2017-Jan-20 12:45 270 5 gusting 7 10.0
2017-Jan-20 12:40 270 4 gusting 7 10.0
2017-Jan-20 12:35 270 5 gusting 8 9.4
2017-Jan-20 12:30 270 5 gusting 6 9.4
2017-Jan-20 12:25 270 5 gusting 7 9.4
2017-Jan-20 12:20 315 3 gusting 6 9.4
2017-Jan-20 12:15 310 3 gusting 6 9.4
2017-Jan-20 12:10 200 3 gusting 5 9.4
2017-Jan-20 12:05 270 2 gusting 4 9.4
2017-Jan-20 12:00 270 2 gusting 6 9.4
2017-Jan-20 11:55 270 2 gusting 6 8.9
2017-Jan-20 11:50 270 2 gusting 6 8.9
2017-Jan-20 11:45 270 3 gusting 6 8.9
2017-Jan-20 11:40 270 2 gusting 5 8.3
2017-Jan-20 11:35 270 0 gusting 4 8.3
2017-Jan-20 11:30 270 2 gusting 6 8.3
2017-Jan-20 11:25 270 2 gusting 5 8.3
2017-Jan-20 11:20 270 1 gusting 5 8.3
2017-Jan-20 11:15 275 2 gusting 6 8.3
2017-Jan-20 11:10 270 2 gusting 6 7.8
2017-Jan-20 11:05 270 2 gusting 6 7.8
2017-Jan-20 11:00 270 3 gusting 6 7.8
2017-Jan-20 10:55 270 3 gusting 6 7.8
2017-Jan-20 10:50 270 2 gusting 5 7.8
2017-Jan-20 10:45 270 1 gusting 4 7.2
2017-Jan-20 10:40 270 0 gusting 2 7.2
2017-Jan-20 10:35 270 1 gusting 4 7.2
2017-Jan-20 10:30 270 1 gusting 5 7.2
2017-Jan-20 10:25 315 1 gusting 4 7.2
2017-Jan-20 10:20 270 0 gusting 4 7.2
2017-Jan-20 10:15 274 0 gusting 5 7.2
2017-Jan-20 10:10 311 2 gusting 5 7.2
2017-Jan-20 10:05 270 2 gusting 4 7.2
2017-Jan-20 10:00 270 1 gusting 2 7.2
2017-Jan-20 09:55 312 1 gusting 4 7.2
2017-Jan-20 09:50 270 2 gusting 6 7.2
2017-Jan-20 09:45 270 0 gusting 5 7.2
2017-Jan-20 09:40 270 1 gusting 5 6.7
2017-Jan-20 09:35 270 0 gusting 2 6.7
2017-Jan-20 09:30 270 2 gusting 5 6.7
2017-Jan-20 09:25 267 2 gusting 6 6.7
2017-Jan-20 09:20 244 3 gusting 6 6.7
2017-Jan-20 09:15 270 3 gusting 5 6.7
2017-Jan-20 09:10 248 1 gusting 4 6.7
2017-Jan-20 09:05 270 1 gusting 2 6.7
2017-Jan-20 09:00 268 1 gusting 5 6.7
2017-Jan-20 08:55 268 1 gusting 5 6.1
2017-Jan-20 08:50 275 2 gusting 5 6.1
2017-Jan-20 08:45 267 1 gusting 4 6.1
2017-Jan-20 08:40 248 2 gusting 4 6.1
2017-Jan-20 08:35 270 1 gusting 4 6.1
2017-Jan-20 08:30 268 2 gusting 5 6.1
2017-Jan-20 08:25 248 2 gusting 4 6.1
2017-Jan-20 08:20 268 1 gusting 5 6.1
2017-Jan-20 08:15 250 2 gusting 5 6.1
2017-Jan-20 08:10 270 2 gusting 6 5.6
2017-Jan-20 08:05 248 5 gusting 6 5.6
2017-Jan-20 08:00 248 2 gusting 6 5.6